Location: *
(27.3373°N, 82.5353°W)
Time: 01:22:40
(UTC+00:00)

Daily predictions for brighter satellites

Satellite Brightness Start Highest point End
(mag) Time Altitude Azimuth Time Altitude Azimuth Time Altitude Azimuth
SWAS 4.5 00:01:09 10° S 00:05:21 62° ESE 00:09:36 10° NNE
Cosmos 1503 Rocket 3.9 00:00:59 10° N 00:06:07 70° ENE 00:11:15 10° SSE
Delta 7925 Rocket 3.6 00:01:20 10° W 00:06:41 66° S 00:11:19 10° ESE
Meteor 1-11 Rocket 4.1 00:01:55 10° SSE 00:07:18 43° E 00:12:35 10° NNE
SWIFT 4.0 00:08:21 10° WSW 00:11:50 25° S 00:15:19 10° SE
FALCON 9 DEB 4.0 00:12:22 10° NNW 00:15:27 31° NE 00:17:48 15° ESE
Cosmos 2237 Rocket 3.0 00:11:04 10° SSE 00:15:55 30° ESE 00:20:46 10° NE
Helios 1A Rocket 3.7 00:15:57 10° SE 00:19:28 29° ENE 00:22:57 10° NNE
NOSS 3-2 (C) 3.4 00:15:01 10° S 00:20:03 45° ESE 00:25:32 10° NE
Lacrosse 4 Rocket 3.7 00:17:34 10° WSW 00:21:20 28° WNW 00:25:11 10° N
IRS-1C Rocket 4.1 00:16:07 10° SSE 00:21:23 89° NE 00:26:40 10° NNW
SAR-Lupe-1 4.1 00:17:55 10° N 00:21:31 81° WNW 00:25:04 10° SSW
Cosmos 2242 Rocket 3.5 00:18:36 10° N 00:23:01 68° E 00:27:23 10° SSE
Cosmos 2341 Rocket 4.2 00:17:47 10° S 00:24:06 78° W 00:30:23 10° N
Cosmos 1844 3.7 00:20:07 10° N 00:25:47 62° ENE 00:31:20 10° SSE
GP-B 3.0 00:21:40 10° S 00:26:04 73° E 00:30:29 10° N
DMSP B5D2-2 4.4 00:21:34 10° NNE 00:26:31 43° E 00:31:25 10° S
Cosmos 2278 Rocket 4.1 00:26:39 10° NE 00:27:53 11° ENE 00:27:53 11° ENE
CZ-4 R/B 1.4 00:24:22 10° S 00:28:12 79° WSW 00:32:06 10° NNW
Cosmos 1689 Rocket 3.3 00:25:48 10° N 00:28:33 43° WNW 00:31:19 10° SSW
SeaSat 1 2.4 00:25:10 10° NNE 00:30:06 78° ESE 00:35:01 10° SSW
OE (NEXTSAT) 4.2 00:28:05 10° SW 00:31:31 83° SE 00:33:52 19° NE
Cosmos 1869 Rocket 3.5 00:27:12 10° S 00:31:32 87° W 00:35:57 10° N
HJ-1C 3.4 00:28:37 10° SSE 00:31:51 54° ENE 00:35:05 10° N
Cosmos 2218 Rocket 4.0 00:28:02 10° S 00:34:24 79° E 00:40:48 10° N
Lacrosse 5 3.0 00:30:48 10° S 00:34:48 24° ESE 00:35:58 22° E
Cosmos 2333 Rocket 3.9 00:31:42 10° SW 00:36:51 36° WNW 00:42:03 10° N
Cosmos 864 Rocket 4.4 00:31:44 10° S 00:37:50 78° E 00:44:03 10° N
ERS-2 3.5 00:34:37 10° N 00:38:03 41° WNW 00:41:30 10° SW
Hubble Space Telescope 0.8 00:34:42 10° W 00:38:49 75° N 00:40:53 28° ENE
Cosmos 1378 4.3 00:39:19 10° NNE 00:41:30 24° NE 00:41:30 24° NE
Cosmos 1959 Rocket 4.4 00:36:58 10° S 00:43:03 89° W 00:49:11 10° N
ARGOS 3.1 00:38:44 10° SSE 00:44:09 84° ENE 00:49:36 10° N
SL-08 RB Rocket 3.6 00:41:26 10° SSE 00:45:51 60° ENE 00:50:21 10° N
Cosmos 1238 Rocket 2.8 00:41:57 10° S 00:46:38 70° E 00:50:29 10° N
Cosmos 1733 Rocket 3.4 00:44:37 10° SSE 00:48:36 38° E 00:52:37 10° NNE
Cosmos 2219 Rocket 4.2 00:47:26 10° SW 00:52:14 29° WNW 00:57:04 10° N
OAO 1 4.4 00:48:03 10° WSW 00:53:33 87° SSE 00:56:15 31° ENE
Cosmos 1743 2.7 00:51:25 10° S 00:55:11 53° E 00:58:58 10° NNE
H-2A R/B 3.5 00:53:54 10° SSW 00:58:07 16° S 00:58:59 15° SSE
USA 238 DEB 4.2 00:53:25 10° SW 00:59:44 56° WNW 01:06:17 10° NNE
USA 238 4.2 00:53:31 10° SW 00:59:51 57° WNW 01:06:24 10° NNE
Cosmos 1980 3.6 00:54:56 10° SSW 01:00:34 89° ESE 01:06:14 10° NNE
USA 234 3.3 00:56:36 10° NE 01:03:08 79° NW 01:09:40 10° SW
BREEZE-M DEB (TANK) 3.3 00:55:03 10° SW 01:05:17 59° SE 01:06:13 48° E
CZ-2C R/B 3.9 01:01:15 10° N 01:06:15 41° WNW 01:11:08 10° SW
X-37B 1.1 01:05:29 10° SW 01:08:11 58° W 01:08:11 58° W
Cosmos 1241 Rocket 4.4 01:03:23 10° NNW 01:09:56 82° ENE 01:13:51 25° SSE
GPS 2-12 Rocket1 4.3 01:18:43 10° WSW 01:22:50 31° S 01:22:50 31° S
Cosmos 1066 Rocket 4.5 01:25:09 10° NNW 01:30:57 71° W 01:36:46 10° S
SME Rocket 4.1 01:26:52 10° N 01:32:19 52° WNW 01:36:18 10° SSW
Ariane Rocket 4.3 01:36:19 28° N 01:36:19 28° N 01:38:45 10° N
ASTEX 1 4.0 01:30:13 10° N 01:34:58 54° W 01:39:44 10° SSW
Cosmos 1763 Rocket 4.0 01:31:49 10° SSW 01:37:02 60° WNW 01:42:17 10° N
Meteor 2-20 4.3 01:30:53 10° N 01:37:03 89° W 01:38:54 48° S
CENTAUR R/B 3.9 01:34:38 10° WSW 01:39:32 32° NW 01:45:10 10° N
Meteor 1-23 Rocket 4.3 01:37:04 10° NNW 01:42:42 73° W 01:43:48 57° SSW
SJ 16-02 3.3 01:45:49 10° NNW 01:47:30 23° NNW 01:47:30 23° NNW
Delta 2 Rocket 4.2 01:52:06 10° W 01:57:27 60° WSW 01:57:27 60° WSW
Cosmos 2237 Rocket 4.1 01:55:05 10° WSW 01:59:50 27° WNW 02:04:36 10° N
ATLAS 2A CENTAUR R/B 4.0 01:22:51 10° W 02:04:33 88° S 02:05:58 71° E
Cosmos 2278 Rocket 3.7 02:06:58 10° NNW 02:09:47 30° NNW 02:09:47 30° NNW
Lacrosse 5 3.9 02:12:51 10° WSW 02:15:17 24° W 02:15:17 24° W
Hubble Space Telescope 4.0 02:15:57 10° W 02:16:12 12° W 02:16:12 12° W
Centaur D-1AR AC-36 4.4 08:16:16 49° ESE 08:16:16 49° ESE 08:39:43 10° E
Cosmos 2360 Rocket 3.3 09:10:23 41° E 09:10:23 41° E 09:15:00 10° SE
CZ-4C R/B 3.5 09:25:50 26° NNE 09:25:50 26° NNE 09:28:14 10° NNE
USA 234 4.3 09:22:36 10° ESE 09:28:38 42° NE 09:33:50 14° NNW
Cosmos 1992 Rocket 4.4 09:33:39 57° ESE 09:33:39 57° ESE 09:38:08 10° SSE
NOSS 3-4 (A) 3.6 09:38:55 56° N 09:38:55 56° N 09:43:48 10° NNE
NOSS 3-4 (C) 3.5 09:38:59 57° N 09:38:59 57° N 09:43:55 10° NNE
Cosmos 2333 Rocket 3.9 09:34:11 10° N 09:39:17 32° ENE 09:44:22 10° SE
Cosmos 2297 Rocket 4.2 09:36:39 10° SSE 09:41:15 26° ESE 09:45:51 10° NE
Cosmos 1140 Rocket 3.9 09:42:17 46° SSE 09:43:33 61° ESE 09:48:40 10° NNE
CZ-3 R/B 3.5 09:32:41 36° WSW 09:45:11 74° SSE 09:53:32 10° E
Sich 1 4.3 09:41:49 10° NNE 09:45:57 40° E 09:50:01 10° SSE
Cosmos 2315 Rocket 4.0 09:49:25 59° NW 09:49:25 59° NW 09:54:55 10° N
ATLAS 2AS CENTAUR R/B 2.9 09:48:43 36° SSW 09:52:27 88° WNW 10:00:24 10° NNE
Cosmos 2219 Rocket 3.7 09:47:54 10° N 09:53:04 35° ENE 09:58:13 10° SE
CBERS 1 LM4 rocket 4.3 09:49:48 10° NNE 09:54:32 81° ESE 09:55:28 58° S
Cosmos 1023 Rocket 4.4 09:53:59 55° S 09:55:09 85° ESE 10:00:21 10° NNE
ATLAS 5 CENTAUR R/B 3.4 10:05:29 16° N 10:05:29 16° N 10:06:38 10° N
METEOR-M 4.0 09:58:14 10° N 10:03:36 84° WNW 10:07:33 18° SSW
Cosmos 1151 Rocket 3.3 10:00:59 14° S 10:04:39 68° E 10:08:55 10° NNE
H-2A R/B 3.4 10:00:57 10° SE 10:04:55 39° ENE 10:08:50 10° N
CZ-2C R/B 2.2 10:07:33 36° S 10:08:25 41° SSE 10:12:33 10° E
COSMOS 2428 3.9 10:05:17 10° N 10:10:42 43° ENE 10:16:05 10° SE
ADEOS 3.5 10:12:07 10° NNE 10:17:22 85° ESE 10:22:35 10° SSW
Cosmos 2219 3.7 10:15:47 10° S 10:21:22 62° ESE 10:26:56 10° NNE
Sakura Rocket 2.7 10:21:11 49° W 10:22:16 89° N 10:26:02 10° E
Cosmos 1633 Rocket 3.7 10:20:16 10° N 10:24:34 55° E 10:28:49 10° SSE
FENGYUN 3A 4.2 10:20:32 10° N 10:25:24 35° WNW 10:26:23 32° W
Skynet4D Del rocket 3.4 10:23:15 36° W 10:25:35 86° S 10:30:56 10° E
RESURS DK-1 2.5 10:26:10 10° SSW 10:30:15 72° ESE 10:34:21 10° NNE
Meteor 1-25 Rocket 4.1 10:25:11 10° N 10:30:45 88° E 10:36:19 10° S
Cosmos 2322 3.6 10:25:16 10° NNW 10:30:55 75° WSW 10:36:31 10° SSE
Lacrosse 4 Rocket 2.1 10:31:24 33° WSW 10:31:24 33° WSW 10:35:03 10° S
USA 238 DEB 3.9 10:23:49 10° NNW 10:31:17 86° WSW 10:38:57 10° SSE
USA 238 3.9 10:23:55 10° NNW 10:31:23 86° WSW 10:39:04 10° SSE
Milstar 3 Cent rocket 1.8 10:31:26 29° W 10:33:55 82° N 10:38:38 10° E
OAO 3 Rocket 4.4 10:31:18 20° NW 10:33:59 34° N 10:38:24 10° ENE
Meteor 1-31 Rocket 2.8 10:33:16 10° N 10:37:01 54° WNW 10:40:43 10° SSW
ALOS 3.6 10:38:06 10° NNW 10:41:05 20° WNW 10:41:05 20° WNW
Cosmos 1954 Rocket 4.0 10:37:40 10° SSW 10:42:54 65° WNW 10:48:07 10° N
Iridium 51 4.0 10:40:02 10° NNW 10:43:30 52° W 10:46:51 10° SSW
Cosmos 2184 Rocket 4.1 10:38:33 10° N 10:44:56 89° E 10:51:19 10° S
GPS 2-04 Rocket1 4.3 10:43:06 14° NW 10:45:21 24° N 10:48:30 10° ENE
Cosmos 1328 Rocket 3.9 10:43:37 10° SSW 10:47:38 39° W 10:51:41 10° NNW
CZ-4B R/B 2.6 10:44:53 10° SSE 10:47:50 40° ENE 10:50:45 10° N
Cosmos 1515 Rocket 3.4 10:45:48 10° S 10:50:06 76° W 10:54:28 10° N
Cosmos 1437 Rocket 3.7 10:48:12 16° SW 10:50:40 27° W 10:54:10 10° NNW
Meteor 1-20 Rocket 4.4 10:47:34 10° NNW 10:53:09 51° W 10:58:45 10° SSW
Cosmos 2360 Rocket 3.5 10:52:22 17° W 10:53:13 18° W 10:56:53 10° SW
Lacrosse 5 rocket 4.1 10:50:28 10° SSE 10:53:47 22° ESE 10:57:13 10° ENE
Meteor PRIRODA 3.6 10:51:48 10° N 10:55:32 84° W 10:59:14 10° SSW
NOSS 3-2 (A) 4.5 10:52:16 10° NW 11:00:00 46° WSW 11:08:14 10° S
Cosmos 2237 Rocket 3.7 10:55:58 10° N 11:01:15 40° ENE 11:06:31 10° SE
Cosmos 1782 3.9 10:58:20 10° SW 11:01:29 23° W 11:04:39 10° NNW
Meteor 2-6 Rocket 4.3 10:56:57 10° S 11:02:54 82° W 11:08:49 10° N
Lacrosse 5 1.8 10:58:23 10° NW 11:03:25 69° WSW 11:08:25 10° SSE
COSMO-SKYMED 1 2.5 11:00:33 10° S 11:04:52 77° WSW 11:09:12 10° NNW
Cosmos 192 4.5 11:00:40 10° NNW 11:05:28 52° WSW 11:10:16 10° S
CZ-4B R/B 3.2 11:01:14 10° N 11:05:40 59° WNW 11:10:01 10° SSW
Centaur D AC-25 3.0 10:57:17 13° W 11:07:12 90° NNE 11:10:55 10° E
Timation 2 Rocket 4.3 11:01:24 10° SW 11:08:05 54° WNW 11:14:45 10° N
Cosmos 1470 Rocket 3.4 11:05:13 10° N 11:09:32 74° W 11:13:49 10° S
Cosmos 2227 Rocket 2.3 11:04:17 10° SSW 11:09:48 55° WNW 11:15:22 10° N
CENTAUR R/B 3.4 11:01:56 10° NW 11:10:26 60° WSW 11:19:05 10° S
USA 234 3.7 11:05:28 10° SSE 11:11:30 40° SW 11:17:34 10° WNW
Nadezhda 1 Rocket 4.2 11:07:27 10° SSW 11:13:13 45° W 11:19:07 10° N
Cosmos 1741 Rocket 4.2 11:08:38 10° S 11:13:54 79° ESE 11:19:13 10° NNE
deb Chang Zheng 4 3.7 11:10:33 10° N 11:14:43 51° WNW 11:18:54 10° SSW
Cosmos 1500 3.1 11:13:28 10° N 11:17:15 74° W 11:21:03 10° S
Meteor 1-10 Rocket 4.3 11:12:51 10° S 11:18:47 77° W 11:24:39 10° N
Cosmos 2333 Rocket 3.2 11:18:41 10° NW 11:23:18 25° WSW 11:27:54 10° SSW
Cosmos 2297 Rocket 3.0 11:20:12 10° SW 11:25:03 30° WNW 11:29:57 10° N
Cosmos 2228 Rocket 3.1 11:21:14 10° SSW 11:25:47 71° W 11:30:20 10° N
Meteor 1-27 Rocket 4.1 11:21:29 10° S 11:27:09 73° E 11:32:43 10° NNE
